Tracking 25710 objects as of 5-Jul-2022
HD Live streaming from Space Station
objects crossing your sky now

FENGYUN 1C DEB

Track FENGYUN 1C DEB now!
10-day predictions


NORAD ID: 31064
Int'l Code: 1999-025BFJ
Perigee: 654.9 km
Apogee: 1,018.1 km
Inclination: 98.5 °
Period: 101.5 minutes
Semi major axis: 7207 km
RCS: 0.0138 m2 (small)
Launch date: May 10, 1999
Source: People's Republic of China (PRC)
Launch site: Taiyaun Space Center, China (TSC)

Note: This is SATELLITE DEBRIS
aabbcc
Your satellite tracking list
Your tracking list is empty




NASA's NSSDC Master Catalog

Two Line Element Set (TLE):
1 31064U 99025BFJ 22185.77590406  .00000314  00000-0  12597-3 0  9990
2 31064  98.5052 195.7423 0252002  48.1104 124.6750 14.18820181794127
Source of the keplerian elements: AFSPC